Regional Weather Roundup
Issued by NWS

Home | Current Version | Previous Version | Graphics & Text | Print | Product List | Glossary On
Versions: 1 2 3 4 5 6 7 8 9 10 11 12 13 14 15 16 17 18 19 20 21 22 23 24 25 26 27 28 29 30 31 32 33 34 35 36 37 38 39 40 41 42 43 44 45 46 47 48 49 50
000
ASUS43 KDMX 020507
RWRIA

WEATHER ROUNDUP FOR IOWA
NATIONAL WEATHER SERVICE DES MOINES IA
1200 AM CDT TUE JUN 02 2015

NOTE: "FAIR" INDICATES FEW OR NO CLOUDS BELOW 12,000 FEET WITH NO
SIGNIFICANT WEATHER AND/OR OBSTRUCTIONS TO VISIBILITY.

* - THESE STATIONS ARE NOT NWS STATIONS...THUS NOT UNDER NWS
QUALITY CONTROL.  THEY ALSO DO NOT REPORT WEATHER SUCH
AS PRECIPITATION OR FOG.

IAZ001>003-012>014-020>022-031>034-043>046-020600-
   NORTHWEST IOWA

CITY           SKY/WX    TMP DP  RH WIND       PRES   REMARKS
CARROLL *      CLEAR     59  52  77 S12       30.10S
CHEROKEE *     CLEAR     61  48  63 SE12      30.07F
DENISON *      CLEAR     59  52  77 SE8       30.08R
LE MARS *      CLEAR     63  50  63 SE9G15    30.05F
ORANGE CITY *  CLEAR     61  48  63 SE9       30.05F
SHELDON *      CLEAR     61  48  63 SE15      30.05F
SIOUX CITY     PTCLDY    64  50  60 SE12      30.04F
SPENCER        CLEAR     59  46  62 SE10      30.08R
$$

IAZ055>058-069>071-079>083-090>094-020600-
   SOUTHWEST IOWA

CITY           SKY/WX    TMP DP  RH WIND       PRES   REMARKS
ATLANTIC *     PTCLDY    61  55  82 SE9       30.11R
AUDUBON *      CLEAR     57  54  88 S6        30.12S
CLARINDA *     CLEAR     59  55  88 S5        30.14R
COUNCIL BLFS * CLEAR     61  55  82 S8        30.09S
CRESTON *      CLEAR     55  55 100 S8        30.13S
HARLAN  *      CLEAR     61  55  82 S6        30.13S
LAMONI         PTCLDY    58  53  84 SE5       30.13S
RED OAK *      CLEAR     59  54  82 S6        30.11R
SHENANDOAH *   CLEAR     59  55  88 SE7       30.12R
$$

IAZ047>049-059>061-072>074-084-020600-
   CENTRAL IOWA

CITY           SKY/WX    TMP DP  RH WIND       PRES   REMARKS
AMES           CLEAR     56  51  84 S5        30.11S
ANKENY *       CLEAR     57  54  88 CALM      30.12S
CHARITON *       N/A     55  54  94 S5        30.13F
DES MOINES     PTCLDY    59  53  80 S6        30.12S
GRINNELL*      CLEAR     57  52  82 S6        30.14S
KNOXVILLE *    CLEAR     57  54  88 CALM      30.12S
MARSHALLTOWN   CLEAR     56  49  77 SE6       30.11F
PELLA *        CLEAR     56  56 100 S3        30.14S
PERRY *          N/A     59  52  77 S7        30.12R
$$

IAZ004>006-015-016-023>025-035-036-020600-
   NORTH CENTRAL IOWA

CITY           SKY/WX    TMP DP  RH WIND       PRES   REMARKS
ALGONA *       CLEAR     59 N/A N/A SE10      30.10S
CLARION *      CLEAR     61  48  63 SE9       30.11S
ESTHERVILLE    CLEAR     58  42  55 S9        30.08R
FORT DODGE *   CLEAR     61  46  59 S7        30.12R
MASON CITY     CLEAR     58  43  57 SE8       30.13S
FOREST CITY *  CLEAR     55  43  62 SE8       30.11S
IOWA FALLS *     N/A     57  48  72 SE5       30.13S
$$

IAZ007>011-017>019-026>030-037>042-050>054-066-020600-
   NORTHEAST IOWA

CITY           SKY/WX    TMP DP  RH WIND       PRES   REMARKS
CEDAR RAPIDS   MOCLDY    56  48  74 CALM      30.13F
CHARLES CITY * CLEAR     57  39  51 SE7       30.14S
CLINTON *      CLEAR     54  45  71 E12       30.19S
DECORAH *      CLEAR     55  41  58 SE6       30.14F
DUBUQUE        CLEAR     53  42  66 E9        30.17F
MONTICELLO *   CLEAR     57  46  67 E10       30.15S
OELWEIN *      CLEAR     55  43  62 SE8       30.15S
WATERLOO       CLEAR     56  42  59 SE7       30.12F
$$

IAZ064-065-067-068-078-020600-
   EAST CENTRAL IOWA

CITY           SKY/WX    TMP DP  RH WIND       PRES   REMARKS
DAVENPORT      CLEAR     57  45  64 E12       30.17S
IOWA CITY      PTCLDY    61  52  72 CALM      30.15F
MT. PLEASANT * CLEAR     55  54  94 S5        30.14F
MUSCATINE *    CLEAR     59  54  82 CALM      30.14F
QUAD CITIES    MOCLDY    57  47  69 E9        30.16S
$$

IAZ062-063-075>077-085>089-095>099-020600-
   SOUTHEAST IOWA

CITY           SKY/WX    TMP DP  RH WIND       PRES   REMARKS
BURLINGTON     CLEAR     56  54  93 CALM      30.14F
FAIRFIELD *    CLEAR     59  54  82 S6        30.14F
FORT MADISON *   N/A     55  54  94 CALM      30.16S
KEOKUK *       CLEAR     55  54  94 CALM      30.14F
OSKALOOSA *      N/A     55  54  94 S5        30.14S
CENTERVILLE *  CLEAR     54  54 100 S6        30.14F
OTTUMWA        CLEAR     56  54  93 CALM      30.13F
WASHINGTON *   CLEAR     57  54  88 S6        30.15F
$$

ABBREVIATIONS USED IN REMARKS
   TC - TEMPERATURES IN CELSIUS
  WCI - WIND CHILL INDEX
   HX - HEAT INDEX
  VSB - VISIBILITY
$$



USA.gov is the U.S. government's official web portal to all federal, state and local government web resources and services.